[[[{"header":{"parameterUnit":"kt","parameterCategory":2,"dx":1,"dy":1,"la1":30.253999710083008,"la2":30.299108505249023,"lo1":-89.0895004272461,"lo2":-89.04439544677734,"nx":28,"ny":28,"refTime":"2022-10-10T21:00:00:Z","depth":0,"parameterNumber":1,"parameterNumberName":"U-component_of_WINDS"},"data":[-7.4073,-7.4273,-7.4225,-7.4431,-7.4423,-7.4556,-7.4588,-7.4625,-7.4642,-7.4795,-7.4874,-7.4847,-7.4845,-7.4929,-7.5013,-7.4999,-7.5039,-7.5144,-7.511,-7.4682,-7.462,-7.4561,-7.4511,-7.5153,-7.5153,-7.5561,-7.5565,-7.5568,-7.3762,-7.3756,-7.3851,-7.3911,-7.3992,-7.3861,-7.3898,-7.3975,-7.4098,-7.412,-7.4195,-7.4326,-7.4424,-7.4386,-7.4472,-7.4564,-7.4509,-7.4591,-7.4586,-7.4588,-7.4128,-7.4075,-7.4635,-7.4634,-7.4634,-7.4634,-7.4634,-7.4634,-7.3184,-7.3305,-7.3313,-7.3415,-7.3432,-7.3473,-7.3581,-7.3543,-7.3636,-7.3719,-7.3643,-7.3782,-7.3795,-7.3875,-7.389,-7.3997,-7.3897,-7.3973,-7.3993,-7.4014,-7.4045,-7.3467,-7.4008,-7.4007,-7.4005,-7.4003,-7.4002,0,-7.2746,-7.2698,-7.2785,-7.2859,-7.2931,-7.2984,-7.3024,-7.3089,-7.297,-7.3052,-7.3166,-7.3224,-7.3338,-7.3441,-7.351,-7.351,-7.3386,-7.3367,-7.3419,-7.3461,-7.3488,-7.3479,-7.2734,-7.3353,-7.3347,-7.3343,-7.334,-7.3337,-7.2161,-7.2309,-7.2293,-7.2361,-7.2371,-7.2483,-7.2539,-7.2423,-7.2489,-7.2521,-7.2635,-7.2735,-7.281,-7.3002,-7.2958,-7.3044,-7.2985,-7.3227,-7.2998,-7.303,-7.2993,-7.2987,-7.3001,-7.3276,-7.3284,-7.329,-7.3295,0,-7.1837,-7.1757,-7.197,-7.1939,-7.1936,-7.2097,-7.2071,-7.2188,-7.2138,-7.2292,-7.2321,-7.2246,-7.236,-7.2276,-7.2391,-7.2344,-7.2609,-7.2547,-7.2603,-7.2587,-7.2798,-7.2781,-7.3489,-7.3577,-7.2907,-7.2913,-7.2919,0,-7.1309,-7.1507,-7.1376,-7.1504,-7.1719,-7.1596,-7.1813,-7.1791,-7.18,-7.192,-7.1763,-7.188,-7.1753,-7.1858,-7.1789,-7.1989,-7.201,-7.1987,-7.1968,-7.2004,-7.2008,-7.2041,-7.2012,-7.1913,-7.1909,-7.1906,-7.1903,0,-7.0813,-7.0974,-7.1179,-7.1203,-7.1192,-7.1292,-7.1292,-7.13,-7.1357,-7.1417,-7.1453,-7.1533,-7.1578,-7.1643,-7.1554,-7.1402,-7.1796,-7.1569,-7.1774,-7.1777,-7.1869,-7.1866,-7.251,-7.1899,-7.1898,-7.1896,-7.1895,0,-7.0375,-7.0437,-7.0748,-7.0733,-7.0781,-7.0917,-7.0986,-7.1082,-7.1103,-7.1067,-7.1114,-7.1,-7.1167,-7.0947,-7.1176,-7.1003,-7.1057,-7.1048,-7.1061,-7.1075,-7.0833,-7.1212,-7.1831,-7.1894,-7.1083,-7.1076,-7.107,0,-6.9831,-7.0122,-7.0018,-7.0315,-7.0438,-7.0252,-7.0401,-7.0423,-7.0388,-7.0487,-7.0446,-7.0562,-7.038,-7.0405,-7.0528,-7.0494,-7.0718,-7.046,-7.061,-7.0616,-7.0613,-7.118,-7.1295,-7.1704,-7.0982,-7.0991,-7.0998,0,-6.9399,-6.9382,-6.9443,-6.9465,-6.9474,-6.9576,-6.9746,-6.9832,-6.9904,-6.9946,-7.0088,-7.0246,-7.0115,-7.0158,-7.0074,-7.0208,-7.0563,-7.0051,-7.005,-7.0149,-7.0929,-7.1038,-7.1107,-7.0477,-7.0487,-7.0496,-7.0928,0,-6.876,-6.8895,-6.9053,-6.9108,-6.9173,-6.9354,-6.9263,-6.9342,-6.9254,-6.9212,-6.9418,-6.9415,-6.9506,-6.956,-6.9476,-6.9808,-6.974,-6.9601,-6.9384,-6.9756,-6.9896,-6.9953,-6.9182,-6.9175,-6.9169,-6.9164,0,0,-6.8262,-6.8452,-6.8333,-6.8493,-6.8541,-6.8346,-6.8548,-6.8571,-6.8626,-6.8664,-6.854,-6.8766,-6.8771,-6.9031,-6.9139,-6.9175,-6.9227,-6.9102,-6.9579,-6.9626,-6.9668,-6.982,-6.9881,-6.9154,-6.9152,-6.915,-6.9148,0,-6.801,-6.8014,-6.8214,-6.8233,-6.8256,-6.8201,-6.8249,-6.8239,-6.8222,-6.8421,-6.826,-6.8372,-6.8557,-6.8583,-6.8621,-6.9066,-6.8941,-6.91,-6.937,-6.9523,-6.9578,-6.9625,-6.9786,-6.9845,-6.9134,-6.9135,-6.9135,0,-6.757,-6.7561,-6.7647,-6.7744,-6.7758,-6.789,-6.7638,-6.7788,-6.7884,-6.7666,-6.7868,-6.7856,-6.7883,-6.814,-6.8251,-6.8144,-6.8685,-6.8498,-6.8532,-6.8544,-6.8688,-6.8753,-6.8812,-6.8045,-6.8041,-6.8038,0,0,-6.7366,-6.7489,-6.7443,-6.7684,-6.7703,-6.7625,-6.7686,-6.7604,-6.7631,-6.7643,-6.7625,-6.7658,-6.7763,-6.7836,-6.793,-6.8224,-6.8221,-6.8367,-6.8419,-6.8461,-6.8496,-6.8651,-6.8716,-6.8025,-6.8025,-6.8024,0,0,-6.7268,-6.7224,-6.7129,-6.7396,-6.7427,-6.7399,-6.755,-6.7434,-6.751,-6.7479,-6.735,-6.7353,-6.7591,-6.7586,-6.7423,-6.7852,-6.7639,-6.7676,-6.7847,-6.7911,-6.7961,-6.7959,-6.7168,0,0,0,0,0,-6.6964,-6.7228,-6.7143,-6.7174,-6.7298,-6.7446,-6.7461,-6.7359,-6.721,-6.7332,-6.7297,-6.7158,-6.7471,-6.7323,-6.7357,-6.7542,-6.7858,-6.7888,-6.7916,-6.8205,-6.8273,-6.833,0,0,0,0,0,0,-6.6975,-6.7014,-6.7136,-6.7121,-6.7147,-6.7435,-6.716,-6.714,-6.7194,-6.7165,-6.7169,-6.7158,-6.7075,-6.7299,-6.7331,-6.7509,-6.7157,-6.787,-6.7895,-6.7917,-6.8228,-6.8283,-6.8331,0,0,0,0,0,-6.6984,-6.7014,-6.7239,-6.7116,-6.714,-6.7067,-6.7149,-6.713,-6.7171,-6.7119,-6.7103,-6.7089,-6.7083,-6.7103,-6.7318,-6.7497,-6.7134,-6.7146,-6.7886,-6.7906,-6.7924,-6.8255,0,0,0,0,0,0,-6.699,-6.6999,-6.7242,-6.7245,-6.7009,-6.7049,-6.7051,-6.7123,-6.7119,-6.7107,-6.7032,-6.7009,-6.7092,-6.7105,-6.7122,-6.7498,-6.7115,-6.7128,-6.7136,-6.7901,-6.7917,-6.793,0,0,0,0,0,0,-6.6981,-6.7003,-6.7243,-6.7113,-6.71,-6.7033,-6.7035,-6.7203,-6.7122,-6.7032,-6.7012,-6.7022,-6.7068,-6.7109,-6.7121,-6.7387,-6.7101,-6.7113,-6.7121,-6.7127,-6.7914,-6.7926,0,0,0,0,0,0,-6.6988,-6.7007,-6.7111,-6.7102,-6.709,-6.712,-6.7179,-6.7312,-6.7009,-6.7035,-6.6978,-6.6965,-6.7076,-6.7085,-6.7121,-6.7383,-6.7386,-6.7101,-6.711,-6.7115,-6.7119,0,0,0,0,0,0,0,-6.6994,-6.6894,-6.7222,-6.7093,-6.7082,-6.7276,-6.7277,-6.7277,-6.7005,-6.6994,-6.6982,-6.6971,-6.7032,-6.7046,-6.7059,-6.7381,0,0,-6.71,-6.7106,0,0,0,0,0,0,0,0,-6.6884,-6.6892,-6.7222,-6.7223,-6.7224,-6.7276,-6.7277,-6.7277,-6.7003,-6.6994,-6.6984,-6.6975,-6.7036,-6.7047,-6.7057,0,0,0,0,0,0,0,0,0,0,0,0,0,0,0,-6.7222,-6.7223,0,-6.7276,-6.7276,-6.7277,-6.7002,-6.6994,-6.6986,-6.6979,-6.7039,-6.7048,-6.7057,0,0,0,0,0,0,0,0,0,0,0,0,0,0,0,0,0,0,0,0,0,0,0,0,0,0,0,0,0,0,0,0,0,0,0,0,0,0,0,0,0,0,0,0,0,0,0,0,0,0,0,0,0,0,0,0,0,0,0,0,0,0,0,0,0,0,0,0,0]}],[{"header":{"parameterUnit":"kt","parameterCategory":2,"dx":1,"dy":1,"la1":30.253999710083008,"la2":30.299108505249023,"lo1":-89.0895004272461,"lo2":-89.04439544677734,"nx":28,"ny":28,"refTime":"2022-10-10T21:00:00:Z","depth":0,"parameterNumber":2,"parameterNumberName":"V-component_of_WINDS"},"data":[-7.1286,-7.1361,-7.1355,-7.1437,-7.1445,-7.1499,-7.1516,-7.1537,-7.1552,-7.1615,-7.1649,-7.165,-7.1661,-7.17,-7.1735,-7.1735,-7.1748,-7.1779,-7.1772,-7.1644,-7.1626,-7.1608,-7.1589,-7.1783,-7.1784,-7.1903,-7.1904,-7.1905,-7.1188,-7.1197,-7.124,-7.1277,-7.1312,-7.1279,-7.1305,-7.1336,-7.1385,-7.1405,-7.144,-7.1494,-7.1536,-7.1537,-7.1576,-7.1608,-7.1593,-7.1619,-7.1614,-7.1615,-7.148,-7.1459,-7.163,-7.163,-7.163,-7.163,-7.163,-7.163,-7.1007,-7.1054,-7.1072,-7.1118,-7.1136,-7.116,-7.1202,-7.1203,-7.1243,-7.1285,-7.127,-7.1325,-7.1343,-7.1387,-7.14,-7.1441,-7.1411,-7.1436,-7.1442,-7.1447,-7.1453,-7.1273,-7.1448,-7.1447,-7.1447,-7.1447,-7.1446,0,-7.0872,-7.0863,-7.0905,-7.0944,-7.0978,-7.1007,-7.1033,-7.106,-7.1039,-7.1074,-7.1124,-7.1151,-7.1204,-7.1248,-7.1283,-7.1291,-7.1257,-7.1255,-7.1271,-7.1276,-7.1276,-7.1272,-7.1047,-7.1249,-7.1248,-7.1246,-7.1245,-7.1245,-7.0684,-7.0741,-7.0759,-7.0789,-7.0802,-7.0851,-7.0878,-7.0857,-7.0886,-7.0915,-7.0956,-7.1001,-7.1036,-7.1116,-7.1114,-7.1153,-7.1136,-7.1214,-7.1142,-7.1145,-7.1132,-7.1127,-7.113,-7.1227,-7.1229,-7.1231,-7.1232,0,-7.0578,-7.0569,-7.0655,-7.0667,-7.0672,-7.0732,-7.0741,-7.0787,-7.0782,-7.0844,-7.0857,-7.085,-7.0898,-7.0884,-7.0938,-7.0928,-7.1021,-7.1006,-7.1013,-7.1008,-7.1072,-7.1064,-7.1292,-7.1319,-7.1122,-7.1124,-7.1125,0,-7.0413,-7.0489,-7.0469,-7.052,-7.0603,-7.0579,-7.0661,-7.0665,-7.0682,-7.073,-7.0691,-7.0737,-7.0713,-7.0756,-7.0743,-7.0817,-7.0828,-7.0824,-7.0818,-7.0825,-7.0825,-7.0837,-7.0825,-7.0811,-7.0809,-7.0808,-7.0807,0,-7.0245,-7.0326,-7.0408,-7.0425,-7.0446,-7.0485,-7.0495,-7.0514,-7.0542,-7.0575,-7.0592,-7.0633,-7.0655,-7.0686,-7.0668,-7.062,-7.076,-7.069,-7.0755,-7.0755,-7.0784,-7.0782,-7.099,-7.0806,-7.0806,-7.0805,-7.0805,0,-7.0108,-7.0145,-7.0268,-7.0283,-7.0305,-7.0361,-7.0399,-7.0444,-7.0466,-7.0462,-7.0488,-7.0459,-7.0527,-7.0457,-7.0547,-7.0488,-7.0511,-7.0514,-7.0518,-7.052,-7.0441,-7.0555,-7.0759,-7.0777,-7.0525,-7.0523,-7.0521,0,-6.9916,-7.0039,-7.002,-7.0138,-7.0192,-7.0143,-7.0204,-7.0226,-7.0225,-7.0269,-7.0267,-7.0319,-7.0265,-7.0278,-7.0325,-7.0325,-7.0402,-7.0315,-7.0373,-7.0375,-7.0364,-7.0552,-7.0584,-7.0717,-7.0491,-7.0494,-7.0496,0,-6.9765,-6.9792,-6.9815,-6.9832,-6.9859,-6.9906,-6.9977,-7.0023,-7.0053,-7.0084,-7.014,-7.0215,-7.0174,-7.0199,-7.018,-7.023,-7.0349,-7.0181,-7.0181,-7.0208,-7.0477,-7.0505,-7.0528,-7.0325,-7.0329,-7.0331,-7.0473,0,-6.9552,-6.9614,-6.9677,-6.9719,-6.9753,-6.9829,-6.9815,-6.9852,-6.983,-6.9828,-6.9913,-6.9929,-6.9975,-6.9999,-6.998,-7.0099,-7.0076,-7.0034,-6.9962,-7.0088,-7.0133,-7.0152,-6.9895,-6.9893,-6.9891,-6.9889,0,0,-6.9367,-6.9457,-6.9435,-6.9504,-6.953,-6.948,-6.956,-6.9581,-6.9624,-6.9642,-6.9603,-6.9709,-6.9725,-6.9828,-6.9867,-6.9888,-6.9906,-6.9863,-7.0029,-7.0045,-7.0059,-7.0109,-7.0129,-6.9886,-6.9885,-6.9885,-6.9884,0,-6.9286,-6.9307,-6.9389,-6.9409,-6.9438,-6.9432,-6.9452,-6.9472,-6.9474,-6.9559,-6.9514,-6.9564,-6.9652,-6.9671,-6.9693,-6.9852,-6.9813,-6.9868,-6.9956,-7.0011,-7.003,-7.0045,-7.0098,-7.0117,-6.988,-6.988,-6.988,0,-6.9132,-6.9148,-6.9187,-6.925,-6.9269,-6.9328,-6.9249,-6.9316,-6.9359,-6.9299,-6.9384,-6.9391,-6.9418,-6.952,-6.9566,-6.953,-6.9729,-6.9666,-6.9677,-6.9681,-6.9734,-6.9756,-6.9775,-6.9518,-6.9517,-6.9516,0,0,-6.9063,-6.9123,-6.9133,-6.9231,-6.9246,-6.9239,-6.927,-6.9252,-6.9278,-6.9289,-6.9297,-6.9323,-6.9373,-6.9407,-6.9453,-6.9569,-6.957,-6.9622,-6.9639,-6.9653,-6.9664,-6.9721,-6.9743,-6.9511,-6.9511,-6.9511,0,0,-6.903,-6.9046,-6.902,-6.9134,-6.9161,-6.9176,-6.9236,-6.9204,-6.9245,-6.9235,-6.9206,-6.9212,-6.9308,-6.9317,-6.9258,-6.9426,-6.9356,-6.937,-6.9417,-6.9438,-6.9455,-6.9449,-6.9178,0,0,0,0,0,-6.894,-6.9044,-6.902,-6.9037,-6.9117,-6.9189,-6.9199,-6.9179,-6.9128,-6.9176,-6.9177,-6.9136,-6.9278,-6.9225,-6.9242,-6.9307,-6.9452,-6.9463,-6.9472,-6.9559,-6.9582,-6.9601,0,0,0,0,0,0,-6.8947,-6.8968,-6.9017,-6.9038,-6.9055,-6.9186,-6.9095,-6.9093,-6.9123,-6.9114,-6.9137,-6.9137,-6.912,-6.9215,-6.923,-6.9293,-6.9173,-6.9456,-6.9465,-6.9473,-6.9567,-6.9585,-6.9601,0,0,0,0,0,-6.8952,-6.8969,-6.9103,-6.9036,-6.9051,-6.9049,-6.9091,-6.9088,-6.9111,-6.9114,-6.9113,-6.9093,-6.9122,-6.9133,-6.9224,-6.9287,-6.9162,-6.9168,-6.9462,-6.9469,-6.9475,-6.9576,0,0,0,0,0,0,-6.8956,-6.8966,-6.9105,-6.9109,-6.8996,-6.9041,-6.9047,-6.9085,-6.9109,-6.9109,-6.9068,-6.9061,-6.9125,-6.9133,-6.9142,-6.9286,-6.9153,-6.9159,-6.9163,-6.9467,-6.9473,-6.9478,0,0,0,0,0,0,-6.8957,-6.897,-6.9107,-6.9058,-6.9056,-6.9034,-6.904,-6.9114,-6.911,-6.9062,-6.9056,-6.9065,-6.9111,-6.9134,-6.9141,-6.9258,-6.9147,-6.9152,-6.9156,-6.9159,-6.9472,-6.9476,0,0,0,0,0,0,-6.8962,-6.8973,-6.9056,-6.9055,-6.9053,-6.9094,-6.9099,-6.9181,-6.9069,-6.9062,-6.9059,-6.9054,-6.9113,-6.9119,-6.914,-6.9254,-6.9257,-6.9147,-6.9151,-6.9153,-6.9155,0,0,0,0,0,0,0,-6.8966,-6.8897,-6.9083,-6.9053,-6.9051,-6.9144,-6.9145,-6.9146,-6.9068,-6.9064,-6.906,-6.9056,-6.9115,-6.9121,-6.9127,-6.9252,0,0,-6.9146,-6.9149,0,0,0,0,0,0,0,0,-6.8891,-6.8895,-6.9083,-6.9084,-6.9085,-6.9144,-6.9145,-6.9146,-6.9068,-6.9064,-6.9061,-6.9057,-6.9116,-6.9121,-6.9126,0,0,0,0,0,0,0,0,0,0,0,0,0,0,0,-6.9083,-6.9084,0,-6.9144,-6.9145,-6.9146,-6.9067,-6.9064,-6.9061,-6.9059,-6.9118,-6.9122,-6.9126,0,0,0,0,0,0,0,0,0,0,0,0,0,0,0,0,0,0,0,0,0,0,0,0,0,0,0,0,0,0,0,0,0,0,0,0,0,0,0,0,0,0,0,0,0,0,0,0,0,0,0,0,0,0,0,0,0,0,0,0,0,0,0,0,0,0,0,0,0]}]]]